STARLINK-36366, 68122

Orbit data source: Space-Track

STARLINK-36366, 68122 is a payload satellite owned by SpaceX/Seattle (US) in SSO that was launched on Sun, 08 Mar 2026 UTC via an FALCON 9 launch vehicle from the Air Force Western Test Range (AFWTR). Payload-class satellites include a variety of spacecraft equipped with specific instruments for various scientific and technological missions. These include communications satellites like Starlink; space stations such as the ISS; scientific satellites like the Hubble; Earth observation satellites from companies like Planet Labs, Umbra, and HawkEye 360; GPS; miniature CubeSats for education and research; and military/defense satellites.

Loading next visibility...
Identifier
68122, 2026-044X
Orbit
SSO
Country
Flag of USUS
Related business
Manufacturer
SpaceX/Seattle
Mission
Operational spacecraft
Bus & Motor
STARLINK V2MO, Unknown motor
Mass
575 kg wet, ~530 kg dry
Launch date (UTC)
2026-03-08 (2 months ago)
Launch vehicle
FALCON 9
Launch site
Air Force Western Test Range (AFWTR)
Object type
Payload
Rocket body
Debris
Shape & HBR
Unknown shape, 17.7 m
Radar Cross Section
RCS unknown

Expand to show TLE details & history
Last TLE update: 9 hours ago

TLE from 9 hours ago
0 STARLINK-36366
1 68122U 26044X   26119.88835078  .00024856  00000-0  76952-3 0  9998
2 68122  97.2856  80.9368 0002265 116.8114 243.3361 15.33451364  9432
Epoch: 2026-04-29T21:19Z
TLE epoch observation values (Epoch: 2026-04-29T21:19:13.507Z)
Latitude
0.00002°
Longitude
-96.71233°
Altitude
469.332 km
Speed
7.631 km/s
True Right ascension
05h 23m 44s
True Declination
0° 00' 00"
Sunlit
Object was in daylight at epoch
Visualization orbit readout
Latitude
Unknown
Longitude
Unknown
Altitude
Unknown
Speed
Unknown
Apparent Right ascension
Unknown
Apparent Declination
Unknown
Sunlit
N/A
Visualization observer readout
Local Sidereal Time
13:40:43
Azimuth
Unknown
Elevation
Unknown
Doppler factor
Unknown
Orbital elements
Apogee altitude
464.016 km
Perigee altitude
460.918 km
Semi-major axis
6,840.604 km
Eccentricity
0.00023
Inclination
97.2856°
RAAN
80.9368°
Arg. of periapsis
116.8114°
True anomaly
243.31291°
Mean anomaly
243.3361°
Eccentric anomaly
243.3245°
Mean motion
3.8362 °/min
Orbital period
93.84 mins
BSTAR
0.00076952
Loading maneuver chart data...
Computing Atmospheric mass density...
Loading historical data...
Loading historical data...
Loading historical data...
Loading historical data...
Loading historical data...
Loading historical data...
Loading historical data...

Documentation

Showing up to 5 results
|